Olive Branch, MS

11:51 PM CST on February 24, 2017 (GMT -0600)
Olive Branch

Weather History for KOLV - February, 2014

Change the Weather History Date:

Wednesday, February 26, 2014

  Actual Average (KMEM) Record (KMEM)
Temperature  
Mean Temperature 27 °F -  
Max Temperature 33 °F 56 °F 80 °F (1917)
Min Temperature 21 °F 36 °F 16 °F (1894)
Degree Days  
Heating Degree Days 38    
Moisture  
Dew Point 17 °F    
Average Humidity 65    
Maximum Humidity 81    
Minimum Humidity 38    
Precipitation  
Precipitation 0.00 in - - ()
Sea Level Pressure  
Sea Level Pressure 30.15 in    
Wind  
Wind Speed 13 mph (North)    
Max Wind Speed 22 mph    
Max Gust Speed 31 mph    
Visibility 10 miles    
Events      
Averages and records for this station are not official NWS values.
T = Trace of Precipitation, MM = Missing Value Source: NWS Daily Summary

Daily Weather History Graph

Daily Weather History Graph

Search for Another Location

Airport or City:

Trip Planner

Search our weather history database for the weather conditions in past years. The results will help you decide how hot, cold, wet, or windy it might be!

Date:

Astronomy

Feb. 26, 2014 Rise Set
Actual Time 6:32 AM CST 5:52 PM CST
Civil Twilight 6:06 AM CST 6:17 PM CST
Nautical Twilight 5:37 AM CST 6:47 PM CST
Astronomical Twilight 5:08 AM CST 7:16 PM CST
Moon 4:13 AM CST (2/26) 3:11 PM CST (2/26)
Length of Visible Light 12h 10m
Length of Day
11h 19m
Waning Crescent, 10% of the Moon is Illuminated
Feb 26
Waning Crescent
Mar 1
New
Mar 8
First Quarter
Mar 16
Full
Mar 23
Last Quarter

Hourly Weather History & Observations

Time (CST) Temp. Windchill Dew Point Humidity Pressure Visibility Wind Dir Wind Speed Gust Speed Precip Events Conditions
12:15 AM 33.8 °F 24.3 °F 28.4 °F 81% 30.12 in 10.0 mi North 13.8 mph 19.6 mph 0.00 in   Overcast
12:35 AM 33.8 °F 23.5 °F 26.6 °F 75% 30.14 in 10.0 mi NNE 16.1 mph - 0.00 in   Overcast
12:55 AM 33.8 °F 24.8 °F 26.6 °F 75% 30.13 in 10.0 mi North 12.7 mph - 0.00 in   Overcast
1:15 AM 32.0 °F 20.1 °F 26.6 °F 80% 30.15 in 10.0 mi North 19.6 mph 24.2 mph 0.00 in   Overcast
1:35 AM 32.0 °F 21.2 °F 24.8 °F 75% 30.15 in 9.0 mi North 16.1 mph 20.7 mph 0.00 in   Overcast
1:55 AM 32.0 °F 21.6 °F 24.8 °F 75% 30.16 in 9.0 mi NNE 15.0 mph 24.2 mph 0.00 in   Overcast
2:15 AM 32.0 °F 21.2 °F 24.8 °F 75% 30.17 in 10.0 mi North 16.1 mph 21.9 mph 0.00 in   Overcast
2:35 AM 30.2 °F 17.4 °F 21.2 °F 69% 30.18 in 10.0 mi North 20.7 mph 29.9 mph 0.00 in   Overcast
2:55 AM 30.2 °F 18.5 °F 21.2 °F 69% 30.19 in 9.0 mi North 17.3 mph 26.5 mph 0.00 in   Overcast
3:15 AM 30.2 °F 17.8 °F 19.4 °F 64% 30.20 in 9.0 mi North 19.6 mph 31.1 mph 0.00 in   Overcast
3:35 AM 30.2 °F 18.5 °F 21.2 °F 69% 30.20 in 10.0 mi NNE 17.3 mph 24.2 mph 0.00 in   Overcast
3:55 AM 30.2 °F 18.9 °F 21.2 °F 69% 30.20 in 10.0 mi North 16.1 mph 27.6 mph 0.00 in   Overcast
4:15 AM 28.4 °F 15.4 °F 23.0 °F 80% 30.19 in 9.0 mi North 19.6 mph 24.2 mph 0.00 in   Overcast
4:35 AM 28.4 °F 17.5 °F 23.0 °F 80% 30.20 in 10.0 mi North 13.8 mph 24.2 mph 0.00 in   Overcast
4:55 AM 28.4 °F 14.7 °F 19.4 °F 69% 30.19 in 10.0 mi North 21.9 mph 26.5 mph 0.00 in   Mostly Cloudy
5:15 AM 28.4 °F 15.8 °F 17.6 °F 64% 30.21 in 10.0 mi NNE 18.4 mph 25.3 mph 0.00 in   Mostly Cloudy
5:35 AM 28.4 °F 17.5 °F 19.4 °F 69% 30.20 in 10.0 mi North 13.8 mph 23.0 mph 0.00 in   Overcast
6:15 AM 26.6 °F 14.7 °F 19.4 °F 74% 30.20 in 10.0 mi North 15.0 mph - 0.00 in   Clear
6:35 AM 26.6 °F 13.4 °F 19.4 °F 74% 30.21 in 9.0 mi North 18.4 mph 23.0 mph 0.00 in   Clear
6:50 AM 26.6 °F 12.7 °F 17.6 °F 69% 30.21 in 10.0 mi North 20.7 mph 24.2 mph N/A   Mostly Cloudy
7:50 AM 26.6 °F 15.2 °F 15.8 °F 64% 30.23 in 10.0 mi North 13.8 mph 19.6 mph N/A   Mostly Cloudy
8:50 AM 28.4 °F 17.0 °F 15.8 °F 59% 30.24 in 10.0 mi NNE 15.0 mph 19.6 mph N/A   Mostly Cloudy
9:50 AM 30.2 °F 20.8 °F 14.0 °F 51% 30.22 in 10.0 mi NNE 11.5 mph 17.3 mph N/A   Scattered Clouds
10:50 AM 30.2 °F 19.8 °F 14.0 °F 51% 30.22 in 10.0 mi NNE 13.8 mph - N/A   Scattered Clouds
11:50 AM 32.0 °F 23.0 °F 14.0 °F 48% 30.20 in 10.0 mi North 11.5 mph 18.4 mph N/A   Scattered Clouds
12:50 PM 32.0 °F 23.0 °F 14.0 °F 48% 30.15 in 10.0 mi NNW 11.5 mph 23.0 mph N/A   Scattered Clouds
1:50 PM 32.0 °F 20.8 °F 10.4 °F 41% 30.13 in 10.0 mi NNW 17.3 mph 23.0 mph N/A   Scattered Clouds
2:50 PM 32.0 °F 22.5 °F 12.2 °F 44% 30.12 in 10.0 mi NNW 12.7 mph - N/A   Scattered Clouds
3:50 PM 32.0 °F 21.6 °F 10.4 °F 41% 30.12 in 10.0 mi NNW 15.0 mph 23.0 mph N/A   Partly Cloudy
4:50 PM 32.0 °F 23.0 °F 8.6 °F 38% 30.10 in 10.0 mi NNW 11.5 mph - N/A   Partly Cloudy
5:50 PM 28.4 °F 18.5 °F 10.4 °F 47% 30.09 in 10.0 mi North 11.5 mph - N/A   Partly Cloudy
6:50 PM 26.6 °F 17.5 °F 10.4 °F 51% 30.10 in 10.0 mi North 9.2 mph - N/A   Partly Cloudy
7:50 PM 24.8 °F - 12.2 °F 59% 30.10 in 10.0 mi Calm Calm - N/A   Clear
8:55 PM 26.6 °F - 12.2 °F 55% 30.11 in 9.0 mi Calm Calm - 0.00 in   Clear
9:15 PM 24.8 °F - 14.0 °F 64% 30.11 in 10.0 mi Calm Calm - 0.00 in   Clear
9:35 PM 24.8 °F - 12.2 °F 59% 30.11 in 8.0 mi Calm Calm - 0.00 in   Clear
9:55 PM 23.0 °F - 12.2 °F 63% 30.11 in 9.0 mi Calm Calm - 0.00 in   Clear
10:15 PM 23.0 °F - 12.2 °F 63% 30.11 in 10.0 mi Calm Calm - 0.00 in   Clear
10:35 PM 21.2 °F - 14.0 °F 74% 30.10 in 10.0 mi Calm Calm - 0.00 in   Clear
10:55 PM 23.0 °F - 15.8 °F 74% 30.10 in 10.0 mi Calm Calm - 0.00 in   Clear
11:15 PM 21.2 °F - 15.8 °F 80% 30.09 in 9.0 mi Calm Calm - 0.00 in   Clear
11:35 PM 21.2 °F - 15.8 °F 80% 30.09 in 10.0 mi Calm Calm - 0.00 in   Clear
11:55 PM 21.2 °F - 14.0 °F 74% 30.09 in 9.0 mi Calm Calm - 0.00 in   Clear